Weather History for Redmond, OR

Change the Weather History Date:

Friday, February 21, 2014

  Actual Average Record
Temperature  
Mean Temperature 38 °F 36 °F  
Max Temperature 49 °F 48 °F 68 °F (1988)
Min Temperature 26 °F 24 °F 10 °F (1952)
Degree Days  
Heating Degree Days 27 29  
Month to date heating degree days 750 634  
Since 1 July heating degree days 4580 4474  
Cooling Degree Days 0 0  
Month to date cooling degree days 0 0  
Year to date cooling degree days 0 0  
Moisture  
Dew Point 26 °F    
Average Humidity 64    
Maximum Humidity 92    
Minimum Humidity 36    
Precipitation  
Precipitation 0.00 in 0.03 in 0.96 in (1956)
Month to date precipitation 1.15 0.50  
Year to date precipitation 1.67 1.47  
Sea Level Pressure  
Sea Level Pressure 30.19 in    
Wind  
Wind Speed 7 mph (SW)    
Max Wind Speed 20 mph    
Max Gust Speed 24 mph    
Visibility 10 miles    
Events      
T = Trace of Precipitation, MM = Missing Value Source: NWS Daily Summary

Daily Weather History Graph

Daily Weather History Graph

Search for Another Location

Airport:

Trip Planner

Search our weather history database for the weather conditions in past years. The results will help you decide how hot, cold, wet, or windy it might be!

Date:

Astronomy

Feb. 21, 2014 Rise Set
Actual Time 6:54 AM PST 5:42 PM PST
Civil Twilight 6:25 AM PST 6:11 PM PST
Nautical Twilight 5:51 AM PST 6:45 PM PST
Astronomical Twilight 5:18 AM PST 7:18 PM PST
Moon No Moon Rise 10:07 AM PST (2/21)
Length of Visible Light 11h 46m
Length of Day
10h 47m
Waning Gibbous, 59% of the Moon is Illuminated
Feb 21
Waning Gibbous
Feb 22
Last Quarter
Mar 1
New
Mar 8
First Quarter
Mar 16
Full

Hourly Weather History & Observations

Time (PST) Temp. Windchill Dew Point Humidity Pressure Visibility Wind Dir Wind Speed Gust Speed Precip Events Conditions
12:56 AM 32.0 °F 28.7 °F 27.0 °F 82% 30.20 in 10.0 mi South 3.5 mph - N/A   Clear
1:56 AM 28.9 °F 23.9 °F 26.1 °F 89% 30.22 in 10.0 mi SSW 4.6 mph - N/A   Clear
2:56 AM 28.0 °F 21.7 °F 25.0 °F 88% 30.22 in 10.0 mi SSE 5.8 mph - N/A   Clear
3:56 AM 28.9 °F 21.9 °F 26.1 °F 89% 30.22 in 10.0 mi SSE 6.9 mph - N/A   Clear
4:56 AM 30.0 °F 23.2 °F 26.1 °F 85% 30.22 in 10.0 mi SSE 6.9 mph - N/A   Clear
5:56 AM 28.9 °F 25.2 °F 25.0 °F 85% 30.22 in 10.0 mi SE 3.5 mph - N/A   Clear
6:56 AM 27.0 °F - 24.1 °F 89% 30.22 in 10.0 mi Calm Calm - N/A   Clear
7:56 AM 34.0 °F 28.0 °F 28.9 °F 82% 30.22 in 10.0 mi South 6.9 mph - N/A   Clear
8:56 AM 39.9 °F 37.8 °F 30.0 °F 68% 30.21 in 10.0 mi SE 3.5 mph - N/A   Clear
9:56 AM 45.0 °F 38.2 °F 28.0 °F 52% 30.21 in 10.0 mi West 15.0 mph - N/A   Clear
10:56 AM 46.9 °F - 25.0 °F 42% 30.21 in 10.0 mi WNW 13.8 mph - N/A   Clear
11:56 AM 48.0 °F - 24.1 °F 39% 30.20 in 10.0 mi WNW 12.7 mph 24.2 mph N/A   Clear
12:56 PM 48.0 °F - 24.1 °F 39% 30.18 in 10.0 mi NW 13.8 mph 21.9 mph N/A   Clear
1:56 PM 48.9 °F - 24.1 °F 38% 30.17 in 10.0 mi WNW 15.0 mph - N/A   Clear
2:56 PM 48.0 °F - 23.0 °F 37% 30.16 in 10.0 mi WNW 12.7 mph - N/A   Clear
3:56 PM 46.9 °F - 25.0 °F 42% 30.16 in 10.0 mi West 11.5 mph - N/A   Clear
4:56 PM 45.0 °F 38.9 °F 25.0 °F 46% 30.15 in 10.0 mi West 12.7 mph - N/A   Clear
5:56 PM 41.0 °F 38.0 °F 25.0 °F 53% 30.16 in 10.0 mi West 4.6 mph - N/A   Clear
6:56 PM 39.0 °F 33.4 °F 26.1 °F 60% 30.17 in 10.0 mi WNW 8.1 mph - N/A   Clear
7:56 PM 34.0 °F - 25.0 °F 70% 30.17 in 10.0 mi Calm Calm - N/A   Clear
8:56 PM 33.1 °F - 25.0 °F 72% 30.15 in 10.0 mi Calm Calm - N/A   Partly Cloudy
9:56 PM 30.9 °F 26.2 °F 25.0 °F 79% 30.15 in 10.0 mi SSE 4.6 mph - N/A   Scattered Clouds
10:56 PM 34.0 °F - 26.1 °F 73% 30.13 in 10.0 mi Calm Calm - N/A   Overcast
11:56 PM 30.0 °F - 25.0 °F 82% 30.14 in 10.0 mi Calm Calm - N/A   Partly Cloudy